TimeEDT,TemperatureF,Dew PointF,Humidity,Sea Level PressureIn,VisibilityMPH,Wind Direction,Wind SpeedMPH,Gust SpeedMPH,PrecipitationIn,Events,Conditions,WindDirDegrees,DateUTC
12:15 AM,68.9,55.8,63,29.71,10.0,South,12.7,24.2,N/A,,Mostly Cloudy,190,2013-11-01 04:15:00
12:35 AM,68.7,55.9,64,29.71,10.0,South,13.8,20.7,N/A,,Scattered Clouds,190,2013-11-01 04:35:00
12:55 AM,68.5,56.3,65,29.71,10.0,South,10.4,26.5,N/A,,Scattered Clouds,190,2013-11-01 04:55:00
1:15 AM,68.9,56.3,64,29.71,10.0,South,13.8,25.3,N/A,,Mostly Cloudy,190,2013-11-01 05:15:00
1:35 AM,69.1,56.3,64,29.71,10.0,SSW,15.0,21.9,N/A,,Overcast,200,2013-11-01 05:35:00
1:55 AM,69.1,56.3,64,29.71,10.0,SSW,11.5,25.3,N/A,,Overcast,200,2013-11-01 05:55:00
2:15 AM,69.1,56.3,64,29.71,10.0,SSW,17.3,27.6,N/A,,Overcast,210,2013-11-01 06:15:00
2:35 AM,69.3,56.5,64,29.70,10.0,SSW,16.1,21.9,N/A,,Overcast,200,2013-11-01 06:35:00
2:55 AM,69.1,56.7,65,29.70,10.0,SSW,18.4,25.3,N/A,,Overcast,200,2013-11-01 06:55:00
3:15 AM,68.0,57.2,68,29.70,10.0,SW,13.8,24.2,N/A,,Overcast,220,2013-11-01 07:15:00
3:35 AM,68.0,57.2,68,29.70,10.0,SSW,12.7,20.7,N/A,,Overcast,200,2013-11-01 07:35:00
3:55 AM,67.6,57.4,70,29.69,10.0,SSW,13.8,26.5,N/A,Rain,Rain,200,2013-11-01 07:55:00
4:15 AM,66.0,58.6,77,29.70,10.0,SW,12.7,23.0,N/A,Rain,Light Rain,220,2013-11-01 08:15:00
4:35 AM,65.3,59.0,80,29.69,10.0,SSW,13.8,25.3,N/A,Rain,Light Rain,210,2013-11-01 08:35:00
4:55 AM,65.5,59.2,80,29.68,10.0,SSW,10.4,21.9,N/A,Rain,Light Rain,210,2013-11-01 08:55:00
5:15 AM,66.0,58.8,78,29.68,10.0,SSW,11.5,21.9,N/A,,Overcast,210,2013-11-01 09:15:00
5:35 AM,65.1,59.5,82,29.71,10.0,West,13.8,23.0,N/A,Rain,Rain,280,2013-11-01 09:35:00
5:55 AM,62.4,60.3,93,29.74,1.8,NW,11.5,-,0.12,Rain,Heavy Rain,310,2013-11-01 09:55:00
6:15 AM,59.4,57.2,93,29.75,3.0,WNW,11.5,16.1,0.19,Rain,Heavy Rain,300,2013-11-01 10:15:00
6:35 AM,59.0,57.0,93,29.77,2.5,West,8.1,-,0.27,Rain,Rain,280,2013-11-01 10:35:00
6:55 AM,58.6,56.8,94,29.77,7.0,West,4.6,-,0.30,Rain,Rain,270,2013-11-01 10:55:00
7:15 AM,59.0,57.2,94,29.78,3.0,WNW,3.5,-,N/A,,Overcast,300,2013-11-01 11:15:00
7:35 AM,58.6,56.8,94,29.78,1.0,NW,3.5,-,N/A,,Overcast,310,2013-11-01 11:35:00
7:55 AM,58.8,56.5,92,29.80,10.0,WNW,5.8,-,0.01,Rain,Light Rain,300,2013-11-01 11:55:00
8:15 AM,58.6,55.6,90,29.80,10.0,West,8.1,-,N/A,,Overcast,280,2013-11-01 12:15:00
8:35 AM,58.6,55.2,88,29.80,10.0,WNW,6.9,-,N/A,,Overcast,290,2013-11-01 12:35:00
8:55 AM,58.6,55.0,88,29.82,10.0,SW,5.8,-,N/A,,Overcast,230,2013-11-01 12:55:00
9:15 AM,59.4,56.3,90,29.82,10.0,West,6.9,20.7,N/A,,Overcast,260,2013-11-01 13:15:00
9:35 AM,60.1,56.5,88,29.82,10.0,SW,9.2,-,N/A,,Overcast,230,2013-11-01 13:35:00
9:55 AM,61.2,56.5,85,29.83,10.0,SW,8.1,17.3,N/A,,Mostly Cloudy,220,2013-11-01 13:55:00
10:15 AM,61.9,55.9,81,29.82,10.0,WSW,9.2,17.3,N/A,,Mostly Cloudy,250,2013-11-01 14:15:00
10:35 AM,62.4,56.5,81,29.82,10.0,West,9.2,-,N/A,,Overcast,270,2013-11-01 14:35:00
10:55 AM,63.9,55.9,75,29.80,10.0,West,10.4,-,N/A,,Overcast,260,2013-11-01 14:55:00
11:15 AM,63.9,55.0,73,29.80,10.0,West,10.4,20.7,N/A,,Overcast,260,2013-11-01 15:15:00
11:35 AM,63.7,53.4,69,29.80,10.0,SW,11.5,19.6,N/A,,Mostly Cloudy,220,2013-11-01 15:35:00
11:55 AM,64.6,53.2,67,29.80,10.0,SW,9.2,-,N/A,,Scattered Clouds,230,2013-11-01 15:55:00
12:15 PM,65.1,52.3,63,29.80,10.0,West,11.5,24.2,N/A,,Scattered Clouds,260,2013-11-01 16:15:00
12:35 PM,66.7,52.5,60,29.79,10.0,SW,4.6,17.3,N/A,,Mostly Cloudy,220,2013-11-01 16:35:00
12:55 PM,67.3,52.0,58,29.78,10.0,WSW,10.4,18.4,N/A,,Mostly Cloudy,240,2013-11-01 16:55:00
1:15 PM,67.1,48.4,51,29.77,10.0,WSW,17.3,26.5,N/A,,Mostly Cloudy,250,2013-11-01 17:15:00
1:35 PM,68.2,49.8,52,29.76,10.0,West,4.6,-,N/A,,Mostly Cloudy,260,2013-11-01 17:35:00
1:55 PM,68.5,47.3,47,29.75,10.0,West,8.1,-,N/A,,Mostly Cloudy,260,2013-11-01 17:55:00
2:15 PM,68.9,46.4,44,29.74,10.0,SW,9.2,18.4,N/A,,Scattered Clouds,230,2013-11-01 18:15:00
2:35 PM,68.0,43.9,42,29.74,10.0,SW,11.5,20.7,N/A,,Scattered Clouds,220,2013-11-01 18:35:00
2:55 PM,68.9,43.3,40,29.73,10.0,SSW,13.8,18.4,N/A,,Scattered Clouds,210,2013-11-01 18:55:00
3:15 PM,68.9,43.7,40,29.73,10.0,SW,12.7,19.6,N/A,,Clear,220,2013-11-01 19:15:00
3:35 PM,69.1,44.1,40,29.73,10.0,WSW,11.5,17.3,N/A,,Scattered Clouds,250,2013-11-01 19:35:00
3:55 PM,68.5,45.1,43,29.73,10.0,SSW,12.7,17.3,N/A,,Clear,210,2013-11-01 19:55:00
4:15 PM,67.6,45.0,44,29.73,10.0,SW,6.9,17.3,N/A,,Scattered Clouds,220,2013-11-01 20:15:00
6:15 PM,64.9,43.9,46,29.73,10.0,WSW,9.2,-,N/A,,Clear,240,2013-11-01 22:15:00
6:35 PM,64.2,44.4,49,29.74,10.0,WSW,5.8,-,N/A,,Clear,240,2013-11-01 22:35:00
6:55 PM,63.7,44.6,50,29.75,10.0,SW,6.9,-,N/A,,Clear,230,2013-11-01 22:55:00
7:15 PM,63.3,44.8,51,29.75,10.0,WSW,5.8,-,N/A,,Clear,240,2013-11-01 23:15:00
7:35 PM,62.6,43.7,50,29.77,10.0,WSW,8.1,-,N/A,,Scattered Clouds,250,2013-11-01 23:35:00
7:55 PM,61.3,43.9,53,29.77,10.0,West,6.9,-,N/A,,Scattered Clouds,270,2013-11-01 23:55:00
8:15 PM,61.2,43.0,51,29.77,10.0,West,4.6,-,N/A,,Clear,280,2013-11-02 00:15:00
8:35 PM,60.8,42.8,52,29.78,10.0,Calm,Calm,-,N/A,,Scattered Clouds,0,2013-11-02 00:35:00
8:55 PM,59.7,43.0,54,29.78,10.0,WNW,3.5,-,N/A,,Scattered Clouds,300,2013-11-02 00:55:00
9:15 PM,59.9,42.8,53,29.79,10.0,WNW,4.6,-,N/A,,Mostly Cloudy,290,2013-11-02 01:15:00
9:35 PM,59.9,42.3,52,29.79,10.0,West,4.6,-,N/A,,Mostly Cloudy,280,2013-11-02 01:35:00
9:55 PM,59.2,41.9,53,29.79,10.0,WSW,3.5,-,N/A,,Mostly Cloudy,250,2013-11-02 01:55:00
10:15 PM,58.6,42.1,54,29.80,10.0,Calm,Calm,-,N/A,,Mostly Cloudy,0,2013-11-02 02:15:00
10:35 PM,58.3,41.9,54,29.80,10.0,Calm,Calm,-,N/A,,Scattered Clouds,0,2013-11-02 02:35:00
10:55 PM,58.1,41.4,54,29.81,10.0,NW,3.5,-,N/A,,Mostly Cloudy,310,2013-11-02 02:55:00
11:15 PM,57.2,41.0,55,29.82,10.0,Calm,Calm,-,N/A,,Overcast,0,2013-11-02 03:15:00
11:35 PM,57.2,40.8,54,29.82,10.0,WSW,4.6,-,N/A,,Mostly Cloudy,250,2013-11-02 03:35:00
11:55 PM,56.5,41.0,56,29.81,10.0,WSW,4.6,-,N/A,,Scattered Clouds,250,2013-11-02 03:55:00